User: anonymous   Login
Location: Table Mountain
(47.2500°N, 120.5778°W)
Time: 22:05:08
(UTC-08:00)
Language:

Tiangong 2 - Orbit

View from above orbital plane
View from above orbital plane
View from above satellite
View from above satellite

Ground track
Ground track

The orbit data is extracted from the following two-line orbital elements,

1 41765U 16057A   18323.89030201  .00002821  00000-0  38489-4 0  9991
2 41765  42.7825 134.2560 0008611 263.6996 243.4813 15.60016384124333
Epoch (UTC): 19 November 2018 21:22:02
Eccentricity: 0.0008611
inclination: 42.7825°
perigee height: 382 km
apogee height: 393 km
right ascension of ascending node: 134.2560°
argument of perigee: 263.6996°
revolutions per day: 15.60016384
mean anomaly at epoch: 243.4813°
orbit number at epoch: 12433

The dashed part of the orbit path shows where the satellite is in the earth's shadow,  

DLR